Newburgh, NY

12:16 AM EDT on September 30, 2016 (GMT -0400)
Stewart International

Weather History for KSWF - May, 2013

Change the Weather History Date:

Sunday, May 26, 2013

  Actual Average Record
Temperature  
Mean Temperature 53 °F -  
Max Temperature 62 °F 68 °F 90 °F (1991)
Min Temperature 44 °F 48 °F 38 °F (1980)
Degree Days  
Heating Degree Days 12    
Growing Degree Days 3 (Base 50)    
Moisture  
Dew Point 38 °F    
Average Humidity 56    
Maximum Humidity 81    
Minimum Humidity 37    
Precipitation  
Precipitation 0.00 in - - ()
Sea Level Pressure  
Sea Level Pressure 30.03 in    
Wind  
Wind Speed 18 mph (NW)    
Max Wind Speed 23 mph    
Max Gust Speed 37 mph    
Visibility 16 miles    
Events      
Averages and records for this station are not official NWS values.
T = Trace of Precipitation, MM = Missing Value Source: NWS Daily Summary

Daily Weather History Graph

Daily Weather History Graph

Search for Another Location

Airport or City:

Trip Planner

Search our weather history database for the weather conditions in past years. The results will help you decide how hot, cold, wet, or windy it might be!

Date:

Astronomy

May. 26, 2013 Rise Set
Actual Time 5:28 AM EDT 8:19 PM EDT
Civil Twilight 4:55 AM EDT 8:52 PM EDT
Nautical Twilight 4:14 AM EDT 9:33 PM EDT
Astronomical Twilight 3:26 AM EDT 10:21 PM EDT
Moon 10:04 PM EDT (5/26) 6:54 AM EDT (5/26)
Length of Visible Light 15h 56m
Length of Day
14h 51m
Waning Gibbous, 97% of the Moon is Illuminated
May 26
Waning Gibbous
May 31
Last Quarter
Jun 8
New
Jun 16
First Quarter
Jun 23
Full

Hourly Weather History & Observations

Time (EDT) Temp. Windchill Dew Point Humidity Pressure Visibility Wind Dir Wind Speed Gust Speed Precip Events Conditions
12:45 AM 44.6 °F 36.6 °F 39.2 °F 81% 29.96 in 10.0 mi WNW 19.6 mph - N/A   Scattered Clouds
2:45 AM 44.6 °F 37.2 °F 37.4 °F 76% 29.93 in 10.0 mi West 17.3 mph - N/A   Scattered Clouds
3:45 AM 46.4 °F 39.5 °F 37.4 °F 71% 29.92 in 10.0 mi West 17.3 mph - N/A   Scattered Clouds
4:45 AM 46.4 °F 39.5 °F 37.4 °F 71% 29.94 in 10.0 mi WNW 17.3 mph 26.5 mph N/A   Scattered Clouds
5:45 AM 44.6 °F 37.2 °F 37.4 °F 76% 29.95 in 10.0 mi WNW 17.3 mph 28.8 mph N/A   Partly Cloudy
7:45 AM 50.0 °F - 41.0 °F 71% 29.99 in 10.0 mi NW 17.3 mph 28.8 mph N/A   Scattered Clouds
8:45 AM 51.8 °F - 41.0 °F 67% 29.99 in 20.0 mi NW 17.3 mph 28.8 mph N/A   Scattered Clouds
9:45 AM 55.4 °F - 41.0 °F 58% 30.00 in 20.0 mi NW 23.0 mph 34.5 mph N/A   Scattered Clouds
10:50 AM 57.2 °F - 41.0 °F 55% 30.01 in 20.0 mi NW 23.0 mph 36.8 mph N/A   Scattered Clouds
11:50 AM 57.2 °F - 41.0 °F 55% 30.02 in 20.0 mi NW 23.0 mph 34.5 mph N/A   Scattered Clouds
12:50 PM 60.8 °F - 39.2 °F 45% 30.02 in 20.0 mi NNW 23.0 mph 34.5 mph N/A   Scattered Clouds
1:50 PM 59.0 °F - 37.4 °F 45% 30.03 in 20.0 mi NW 20.7 mph 32.2 mph N/A   Scattered Clouds
2:45 PM 59.0 °F - 37.4 °F 45% 30.04 in 20.0 mi NNW 11.5 mph 25.3 mph N/A   Mostly Cloudy
3:45 PM 60.8 °F - 37.4 °F 42% 30.04 in 20.0 mi NW 23.0 mph 32.2 mph N/A   Mostly Cloudy
4:45 PM 62.6 °F - 37.4 °F 39% 30.06 in 20.0 mi NNW 16.1 mph 28.8 mph N/A   Scattered Clouds
5:45 PM 62.6 °F - 35.6 °F 37% 30.07 in 20.0 mi NNW 18.4 mph 28.8 mph N/A   Scattered Clouds
6:45 PM 60.8 °F - 35.6 °F 39% 30.10 in 20.0 mi NNW 16.1 mph 27.6 mph N/A   Scattered Clouds
7:45 PM 57.2 °F - 33.8 °F 41% 30.13 in 20.0 mi NNW 11.5 mph 18.4 mph N/A   Clear
8:45 PM 55.4 °F - 33.8 °F 44% 30.14 in 10.0 mi Calm Calm - N/A   Clear
9:45 PM 51.8 °F - 35.6 °F 54% 30.16 in 10.0 mi WNW 9.2 mph - N/A   Clear